TimeMDT,TemperatureF,Dew PointF,Humidity,Sea Level PressureIn,VisibilityMPH,Wind Direction,Wind SpeedMPH,Gust SpeedMPH,PrecipitationIn,Events,Conditions,WindDirDegrees,DateUTC
12:51 AM,45.0,37.9,76,30.00,10.0,Calm,Calm,-,N/A,,Overcast,0,2012-11-02 06:51:00
1:51 AM,43.0,37.0,80,30.03,10.0,Calm,Calm,-,N/A,,Partly Cloudy,0,2012-11-02 07:51:00
2:51 AM,39.0,36.0,89,30.05,10.0,Calm,Calm,-,N/A,,Partly Cloudy,0,2012-11-02 08:51:00
3:51 AM,37.9,34.0,86,30.05,10.0,Calm,Calm,-,N/A,,Mostly Cloudy,0,2012-11-02 09:51:00
4:51 AM,34.0,32.0,92,30.07,10.0,Calm,Calm,-,N/A,,Mostly Cloudy,0,2012-11-02 10:51:00
5:51 AM,34.0,32.0,92,30.10,10.0,Calm,Calm,-,N/A,,Clear,0,2012-11-02 11:51:00
6:51 AM,35.1,32.0,89,30.12,10.0,Calm,Calm,-,N/A,,Mostly Cloudy,0,2012-11-02 12:51:00
7:51 AM,33.1,30.9,92,30.14,10.0,North,3.5,-,N/A,,Clear,10,2012-11-02 13:51:00
8:51 AM,33.1,30.9,92,30.16,10.0,Calm,Calm,-,N/A,,Clear,0,2012-11-02 14:51:00
10:51 AM,45.0,35.1,68,30.16,10.0,Calm,Calm,-,N/A,,Clear,0,2012-11-02 16:51:00
11:51 AM,48.0,35.1,61,30.14,10.0,Calm,Calm,-,N/A,,Clear,0,2012-11-02 17:51:00
12:51 PM,54.0,36.0,51,30.12,10.0,Calm,Calm,-,N/A,,Clear,0,2012-11-02 18:51:00
1:51 PM,55.9,32.0,40,30.10,10.0,North,3.5,-,N/A,,Clear,10,2012-11-02 19:51:00
2:51 PM,57.0,26.1,30,30.09,10.0,Calm,Calm,-,N/A,,Clear,0,2012-11-02 20:51:00
3:51 PM,57.0,25.0,29,30.07,10.0,Calm,Calm,-,N/A,,Clear,0,2012-11-02 21:51:00
4:51 PM,57.0,24.1,28,30.09,10.0,Calm,Calm,-,N/A,,Clear,0,2012-11-02 22:51:00
5:51 PM,55.9,25.0,30,30.09,10.0,West,3.5,-,N/A,,Clear,260,2012-11-02 23:51:00
6:51 PM,48.9,30.9,50,30.12,10.0,Variable,3.5,-,N/A,,Clear,0,2012-11-03 00:51:00
7:51 PM,43.0,28.9,58,30.16,10.0,SSE,3.5,-,N/A,,Clear,160,2012-11-03 01:51:00
8:51 PM,45.0,28.0,52,30.15,10.0,South,4.6,-,N/A,,Clear,190,2012-11-03 02:51:00
9:51 PM,36.0,30.0,79,30.17,10.0,North,4.6,-,N/A,,Clear,350,2012-11-03 03:51:00
11:51 PM,34.0,30.0,85,30.17,10.0,Calm,Calm,-,N/A,,Clear,0,2012-11-03 05:51:00